Location: Unspecified
(51.0950°N, 12.9690°E)
Time: 21:46:10
(UTC+00:00)

EO-79 - Visible Passes

Search period start: 24 April 2024 00:00
Search period end: 04 May 2024 00:00
Orbit: 565 x 577 km, 98.0° (Epoch: 24 April)

Date Brightness Start Highest point End Pass type
(mag) Time Alt. Az. Time Alt. Az. Time Alt. Az.
24 Apr ? 01:07:32 10° NE 01:09:45 14° E 01:11:58 10° ESE visible
24 Apr ? 02:41:14 10° N 02:45:20 71° WNW 02:49:25 10° SSW visible
25 Apr ? 01:09:32 10° NE 01:11:53 15° E 01:14:13 10° SE visible
25 Apr ? 02:43:21 10° N 02:47:27 67° WNW 02:51:31 10° SSW visible
26 Apr ? 01:11:32 10° NE 01:14:00 15° E 01:16:27 10° SE visible
26 Apr ? 02:45:27 10° N 02:49:32 65° WNW 02:53:35 10° SSW visible
27 Apr ? 01:13:30 10° NE 01:16:05 16° E 01:18:38 10° SE visible
27 Apr ? 02:47:30 10° N 02:51:34 62° WNW 02:55:37 10° SSW visible
28 Apr ? 01:15:27 10° NE 01:18:07 17° E 01:20:46 10° SE visible
28 Apr ? 02:49:32 10° N 02:53:35 59° WNW 02:57:37 10° SSW visible
29 Apr ? 01:17:23 10° NE 01:20:08 17° E 01:22:53 10° SE visible
29 Apr ? 02:51:33 10° N 02:55:35 57° WNW 02:59:36 10° SSW visible
30 Apr ? 01:19:16 10° NE 01:22:07 18° E 01:24:57 10° SE visible
30 Apr ? 02:53:31 10° N 02:57:33 54° WNW 03:01:32 10° SSW visible
01 May ? 01:21:09 10° NE 01:24:04 19° E 01:26:58 10° SE visible
01 May ? 02:55:28 10° N 02:59:27 52° WNW 03:03:27 10° SW visible
02 May ? 01:23:00 10° NE 01:26:00 19° E 01:28:58 10° SE visible
02 May ? 02:57:22 10° N 03:01:22 50° WNW 03:05:19 10° SW visible
03 May ? 01:24:49 10° NE 01:27:53 20° E 01:30:55 10° SE visible
